Location: Clermont
(49.3803°N, 2.4116°E)
Time: 00:54:06
(UTC+00:00)

Daily predictions for brighter satellites

Satellite Brightness Start Highest point End
(mag) Time Altitude Azimuth Time Altitude Azimuth Time Altitude Azimuth
Cosmos 2219 Rocket 4.5 03:10:32 19° NE 03:10:32 19° NE 03:12:22 10° NE
Cosmos 2322 Rocket 4.5 03:35:08 16° NNE 03:35:08 16° NNE 03:36:11 10° NNE
CZ-4C R/B 3.9 03:38:51 34° NNE 03:39:20 34° NNE 03:46:23 10° E
ATLAS 3B R/B 3.6 03:41:57 45° NNE 03:41:57 45° NNE 03:47:09 10° NE
H-2A R/B 4.0 03:45:45 10° NE 03:49:46 24° E 03:53:48 10° SSE
SL-16 R/B 4.4 04:04:09 15° N 04:04:09 15° N 04:05:12 10° NNE
COSMOS 2428 3.5 04:04:27 48° SE 04:04:52 49° ESE 04:10:22 10° NE
Cosmos 2333 Rocket 3.7 04:08:53 28° NNE 04:08:53 28° NNE 04:11:35 10° NNE
ARIANE 5 R/B 4.0 04:01:27 10° NNE 04:06:13 34° E 04:10:58 10° SSE
CENTAUR R/B 3.7 04:04:39 41° NNW 04:07:11 53° NE 04:15:56 10° ESE
BREEZE M DEB (TANK) 3.8 04:09:07 73° S 04:09:07 73° S 04:24:52 10° ESE
Cosmos 2278 Rocket 2.8 04:11:18 52° NE 04:11:31 52° NE 04:17:01 10° SE
Cosmos 2221 4.3 04:14:15 29° ESE 04:14:15 29° ESE 04:16:56 10° SE
Cosmos 2237 Rocket 4.2 04:15:36 10° SSE 04:20:15 27° ESE 04:24:54 10° NE
Cosmos 1331 Rocket 4.4 04:23:11 61° ESE 04:23:11 61° ESE 04:27:40 10° SSE
Cosmos 1048 Rocket 4.3 04:24:55 62° E 04:24:55 62° E 04:29:48 10° NNE
Cosmos 1092 Rocket 4.2 04:22:08 21° N 04:26:30 71° E 04:32:45 10° SSE
SL-08 R/B 4.4 04:25:41 10° SE 04:30:00 40° ENE 04:31:40 29° NNE
Lacrosse 5 rocket 2.6 04:35:42 39° NE 04:35:42 39° NE 04:38:30 10° NE
Cosmos 2322 3.6 04:34:58 80° N 04:34:58 80° N 04:40:23 10° NNE
SKYMED 2 4.2 04:32:19 10° SSE 04:36:29 54° ENE 04:36:29 54° ENE
Cosmos 1428 Rocket 4.3 04:38:34 53° NNW 04:40:08 80° W 04:46:15 10° S
USA 267 3.7 04:33:57 10° E 04:40:12 49° N 04:41:48 41° NNW
Cosmos 1634 Rocket 4.4 04:34:29 10° S 04:40:34 61° E 04:46:44 10° NNE
Cosmos 1943 Rocket 2.8 04:46:58 29° N 04:49:30 52° NE 04:54:52 10° SE
Cosmos 2219 Rocket 2.7 04:52:17 42° NNW 04:52:17 42° NNW 04:56:37 10° NNE
Cosmos 2360 Rocket 3.7 04:53:37 23° N 04:53:37 23° N 04:56:22 10° NNE
IRS-P3 Rocket 4.4 04:47:18 10° NNE 04:52:33 78° WNW 04:54:10 45° SSW
Cosmos 1953 Rocket 4.0 04:48:35 10° S 04:52:59 62° E 04:57:26 10° NNE
Meteor 2-3 Rocket 3.5 04:52:55 30° SSW 04:55:44 72° WNW 05:01:21 10° N
SL-19 R/B 4.1 04:53:33 10° NNE 04:59:00 80° ESE 05:04:14 10° SSW
Cosmos 2285 Rocket 4.4 04:54:00 10° S 05:00:15 66° ESE 05:06:37 10° NNE
USA 281 3.5 04:53:43 10° NNE 05:00:18 68° ESE 05:06:49 10° SSW
USA 229 DEB 3.5 04:59:43 50° W 05:01:16 64° NW 05:08:10 10° NE
USA 229 3.5 04:59:44 49° W 05:01:19 64° NW 05:08:13 10° NE
Cosmos 1110 Rocket 4.1 05:03:19 54° WSW 05:03:19 54° WSW 05:08:16 10° S
Cosmos 1627 Rocket 4.4 05:00:05 11° NNW 05:06:17 66° W 05:12:32 10° S
NOSS 3-1 (C) 4.5 05:06:01 27° NNW 05:06:32 27° NNW 05:12:12 10° NE
IRS-1C 4.0 05:02:00 10° NNE 05:07:20 74° WNW 05:12:39 10° SSW
Cosmos 494 Rocket 4.2 05:08:36 48° NW 05:08:36 48° NW 05:13:03 10° NNE
NOSS 3-1 (A) 4.0 05:10:44 33° NW 05:11:11 34° NNW 05:17:07 10° NE
SJ-12 4.3 05:08:02 10° NNE 05:12:04 64° ESE 05:16:03 10° S
JB-3 4.3 05:08:39 10° SSE 05:12:42 86° ENE 05:13:53 45° N
ATLAS 5 CENTAUR R/B 3.7 05:12:34 10° SSE 05:15:07 20° ESE 05:17:50 10° ENE
Cosmos 2322 Rocket 3.9 05:16:57 17° NNW 05:16:57 17° NNW 05:19:31 10° N
CZ-2D R/B 3.1 05:16:02 10° N 05:19:58 75° WNW 05:23:53 10° SSW
Cosmos 1500 3.5 05:17:37 10° S 05:21:06 61° E 05:24:36 10° NNE
CZ-3 R/B 4.3 05:09:37 13° WSW 05:21:56 24° SSW 05:28:33 10° SSE
ERS-1 4.3 05:17:03 10° N 05:21:58 65° WNW 05:26:52 10° SSW
Cosmos 1302 Rocket 3.9 05:19:22 28° NNW 05:22:09 83° WSW 05:27:22 10° SSE
Cosmos 1437 Rocket 2.5 05:20:50 10° S 05:24:30 83° E 05:28:11 10° NNE
COSMO-SKYMED 1 2.7 05:20:25 10° S 05:24:39 51° W 05:25:06 48° WNW
CZ-4C R/B 3.0 05:23:59 24° NW 05:28:46 82° NE 05:37:19 10° SE
H-2A R/B 2.0 05:24:39 10° N 05:29:25 50° WNW 05:34:14 10° SW
Cosmos 2369 Rocket 3.7 05:24:42 10° NNW 05:29:46 32° NE 05:34:50 10° ESE
ARGOS 3.2 05:26:07 10° NNE 05:31:33 82° ESE 05:36:55 10° SSW
ATLAS 3B R/B 3.8 05:29:12 26° NW 05:31:45 31° NNW 05:38:28 10° NE
Cosmos 1842 Rocket 3.5 05:31:56 19° NNW 05:35:04 70° W 05:39:30 10° S
BREEZE-M DEB (TANK) 2.8 05:35:17 40° W 05:36:33 76° SSW 05:45:07 10° ESE
Cosmos 1992 Rocket 4.2 05:32:12 14° NNW 05:36:46 69° ENE 05:41:57 10° SSE
NOSS 0 Rocket 3.9 05:30:50 10° SW 05:37:03 70° WNW 05:43:19 10° NNE
Cosmos 1602 4.3 05:33:49 10° S 05:37:23 56° E 05:41:01 10° NNE
IRS-P3 4.2 05:33:29 10° N 05:38:38 51° WNW 05:43:46 10° SW
Cosmos 1980 3.6 05:33:49 10° SSW 05:39:29 80° WNW 05:45:12 10° NNE
CZ-2D R/B 3.7 05:36:32 10° NNE 05:40:10 59° E 05:43:47 10° S
Meteor 2-6 Rocket 4.2 05:38:44 10° NNW 05:44:26 62° W 05:49:54 10° S
Cosmos 1076 Rocket 3.4 05:40:45 10° SSW 05:45:02 70° W 05:49:24 10° N
NOSS 3-2 (C) 4.3 05:39:17 18° NW 05:45:03 68° NE 05:53:34 10° SE
ARIANE 5 R/B 2.9 05:40:29 10° N 05:45:19 39° WNW 05:50:09 10° SW
Geosat 4.0 05:40:16 10° NNE 05:45:19 84° ESE 05:50:21 10° SSW
IKONOS-2 4.4 05:41:36 10° SSE 05:45:47 89° WSW 05:50:00 10° NNW
SL-16 R/B 4.2 05:46:01 11° NNW 05:46:04 11° NNW 05:47:46 10° N
USA 215 4.5 05:40:35 10° ENE 05:46:44 42° SE 05:52:51 10° SSW
DELTA 2 DEB (DPAF) 4.1 05:44:07 10° SSE 05:48:25 81° ENE 05:52:43 10° NNW
COSMOS 2428 3.3 05:46:32 23° W 05:49:18 36° NW 05:54:34 10° NNE
FengYun 1-2 T 4.2 05:44:34 10° N 05:50:06 64° WNW 05:55:34 10° SSW
Cosmos 2221 3.6 05:51:00 24° WSW 05:51:00 24° WSW 05:53:44 10° SW
Cosmos 2333 Rocket 3.7 05:50:54 18° NW 05:51:16 18° NW 05:55:09 10° N
CZ-2C R/B 3.4 05:49:00 10° NNE 05:52:44 57° E 05:56:30 10° S
GENESIS II 4.0 05:50:03 14° SW 05:53:21 70° NW 05:57:14 10° NE
Cosmos 2278 Rocket 3.0 05:53:11 23° WNW 05:55:20 30° WSW 06:00:12 10° SSW
CENTAUR R/B 3.4 05:51:49 17° NW 05:58:22 63° WSW 06:07:20 10° SSE
Cosmos 2266 Rocket 3.9 05:54:18 10° N 06:00:24 83° W 06:06:34 10° S
Helios 1B rocket 2.3 05:58:40 10° NNE 06:02:41 88° WNW 06:06:40 10° SSW
SeaSat 1 3.4 05:59:08 10° ESE 06:03:46 43° NE 06:08:25 10° NNW
Cosmos 2237 Rocket 2.2 05:58:21 10° SW 06:03:56 58° WNW 06:09:32 10° NNE
Cosmos 1378 3.7 06:03:21 26° WNW 06:04:20 30° W 06:07:24 10° SSW
NOSS 3-2 (A) 4.2 06:00:41 16° NW 06:06:54 66° SW 06:15:28 10° SSE
SL-08 R/B 4.2 06:03:53 10° SSW 06:07:51 27° W 06:10:33 16° NW
Intercosmos 25 Rocket 3.6 06:07:15 10° SSW 06:10:59 76° WNW 06:16:44 10° N
Lacrosse 5 rocket 2.3 06:10:48 20° WNW 06:13:12 34° NNW 06:17:13 10° NE
CZ-3B R/B 4.3 06:08:37 17° WNW 06:13:24 68° SSW 06:37:58 10° SE
Meteor 2-12 Rocket 4.5 06:10:05 10° NNW 06:16:07 63° W 06:22:09 10° S
Spot 4 Rocket 4.2 06:11:11 10° N 06:16:07 48° WNW 06:21:03 10° SW
Cosmos 2151 3.8 06:12:51 10° SW 06:16:31 28° WNW 06:20:13 10° N
Cosmos 2297 3.7 06:16:06 10° NNW 06:21:47 88° ENE 06:27:25 10° SSE
Cosmos 1461 2.9 06:17:24 10° SW 06:21:51 71° NW 06:26:12 10° NE
USA 267 3.3 06:16:19 10° ESE 06:22:52 82° NNE 06:29:08 12° WNW
Cosmos 1151 Rocket 3.0 06:19:03 10° N 06:23:24 86° ENE 06:27:44 10° S
Cosmos 1666 3.2 06:22:24 10° SW 06:25:34 30° WNW 06:28:44 10° N
PSLV R/B 4.1 06:22:19 10° N 06:26:14 35° WNW 06:30:06 10° SW
Meteor 1-31 Rocket 2.7 06:28:16 10° NNE 06:32:05 85° WNW 06:35:53 10° SSW
Meteor 1-25 Rocket 4.4 06:27:10 10° S 06:32:59 84° E 06:38:47 10° NNE
Cosmos 1943 Rocket 3.0 06:28:30 11° NW 06:32:59 30° WSW 06:37:40 10° SSW
USA 238 DEB 4.0 06:27:51 10° NW 06:35:09 82° NE 06:42:59 10° SE
USA 238 4.1 06:27:55 10° NW 06:35:13 81° NE 06:43:01 10° SE
ERS-2 2.5 06:33:41 10° N 06:36:12 26° WNW 06:38:41 10° SW
Cosmos 2219 Rocket 3.9 06:34:02 11° WNW 06:36:32 14° NNW 06:39:34 10° N
Cosmos 2360 Rocket 4.2 06:37:02 10° NNW 06:37:32 10° NNW 06:38:00 10° NNW
Elektron 3 4.5 06:35:31 13° WNW 06:38:05 51° SW 06:42:29 10° SSE
Cosmos 1269 Rocket 4.0 06:35:29 10° SSW 06:40:44 69° WNW 06:46:02 10° NNE
USA 281 3.8 06:38:41 10° NNE 06:44:25 33° NW 06:50:08 10° WSW
Meteor 1-27 Rocket 3.9 06:41:20 10° NNW 06:46:39 49° W 06:51:55 10° SSW
SMAP 3.1 06:43:04 10° N 06:47:40 59° WNW 06:52:14 10° SSW
Okean 1 3.5 06:45:00 10° NNW 06:48:41 46° W 06:52:21 10° SSW
AQUARIUS 4.1 06:47:22 10° N 06:51:49 66° WNW 06:56:13 10° SSW
Meteor 1-20 Rocket 4.2 06:46:38 10° SSW 06:52:01 60° WNW 06:57:27 10° N
Meteor 2-4 Rocket 4.0 06:47:17 10° N 06:53:06 81° E 06:59:00 10° SSE
CZ-4C R/B 3.7 06:51:37 10° S 06:55:43 51° W 06:59:52 10° NNW
Cosmos 1328 Rocket 3.6 06:51:50 10° N 06:56:17 88° E 07:00:43 10° S
Cosmos 2084 Rocket 4.0 06:53:50 10° SSW 06:57:57 60° SE 07:01:56 10° NE
ATLAS 5 CENTAUR R/B 1.4 06:55:25 10° WSW 06:58:46 44° NW 07:02:36 10° NE
NOSS 2-1 (E) 3.2 06:56:30 10° SSW 06:59:43 65° SE 07:02:45 10° NE
CORIOLIS 4.3 06:54:36 10° N 06:59:56 59° WNW 07:05:16 10° SSW
SL-16 R/B 2.3 06:57:22 10° SW 07:03:00 62° WNW 07:08:41 10° NNE
